Regional Weather Roundup
Issued by NWS

Home | Current Version | Previous Version | Text Only | Print | Product List | Glossary Off
Versions: 1 2 3 4 5 6 7 8 9 10 11 12 13 14 15 16 17 18 19 20 21 22 23 24 25 26 27 28 29 30 31 32 33 34 35 36 37 38 39 40 41 42 43 44 45 46 47 48 49 50

000
ASUS43 KMKX 242311
RWRWI

WISCONSIN REGIONAL WEATHER ROUNDUP
NATIONAL WEATHER SERVICE MILWAUKEE/SULLIVAN WI
600 PM CDT THU APR 24 2014

NOTE: "FAIR" INDICATES FEW OR NO CLOUDS BELOW 12,000 FEET WITH NO
SIGNIFICANT WEATHER AND/OR OBSTRUCTIONS TO VISIBILITY.

WIZ001-002-006>008-014>016-023>028-250000-
NORTHWEST WISCONSIN

CITY           SKY/WX    TMP DP  RH WIND       PRES   REMARKS
SUPERIOR ARPT  LGT SNOW  32  32 100 NE12      29.75S WCI  23
ASHLAND        MIX PCPN  34  34 100 NE7       29.76F FOG     WCI  28
HAYWARD        CLOUDY    36  32  85 E7        29.70F WCI  30
SIREN          DRIZZLE   40  39  97 CALM      29.69S
RICE LAKE      CLOUDY    42  40  94 SE7       29.69S FOG
LADYSMITH      RAIN      42  40  94 SE9       29.70S
EAU CLAIRE     CLOUDY    43  42  97 S3        29.67S FOG
MENOMONIE      CLOUDY    43  42  99 SE6       29.68R FOG
NEW RICHMOND   CLOUDY    42  42  99 SW5       29.69R FOG
OSCEOLA        CLOUDY    43  43 100 S3        29.71S FOG
$$

WIZ003>005-009-010-017-018-250000-
NORTH CENTRAL WISCONSIN

CITY           SKY/WX    TMP DP  RH WIND       PRES   REMARKS
WOODRUFF       LGT SNOW  37  34  92 SE10      29.74F WCI  29
RHINELANDER    LGT RAIN  36  34  92 SE15G25   29.76F FOG     WCI  27
EAGLE RIVER    MIX PCPN  34  33  99 E14       29.77F WCI  24
LAND O LAKES   LGT SNOW  34  33  95 E16G22    29.79F WCI  24
PHILLIPS       RAIN      37  36  95 SE15      29.71S WCI  28
TOMAHAWK       RAIN      37  36  93 E5        29.73F WCI  34
MEDFORD        RAIN      39  38  97 SE12      29.70S WCI  31
MERRILL        LGT RAIN  39  38  95 SE18G25   29.73F WCI  30
$$

WIZ029-030-035-036-043>047-250000-
CENTRAL WISCONSIN

CITY           SKY/WX    TMP DP  RH WIND       PRES   REMARKS
WAUSAU         LGT RAIN  40  40 100 SE16G28   29.73S FOG     WCI  31
MOSINEE        LGT RAIN  39  39 100 E14G24    29.74S FOG     WCI  31
MARSHFIELD     LGT RAIN  42  39  89 SE16      29.71S VSB 1
STEVENS POINT  LGT RAIN  39  37  92 E8        29.75R WCI  34
WAUPACA        CLOUDY    45  37  76 E12       29.76S
WAUTOMA        LGT RAIN  45  39  79 E8        29.73F
WISC RAPIDS    LGT RAIN  43  40  89 SE8       29.73R FOG
CAMP DOUGLAS   LGT RAIN  46  46 100 NE2       29.69R FOG
$$

WIZ011>013-019>022-031-037>040-048>050-250000-
NORTHEAST WISCONSIN

CITY           SKY/WX    TMP DP  RH WIND       PRES   REMARKS
ANTIGO         RAIN      37  35  95 E18G28    29.76F WCI  26
STURGEON BAY   CLOUDY    39  34  81 E10G20    29.84F WCI  32
GREEN BAY      LGT RAIN  42  38  85 E14       29.80F
MANITOWOC      LGT RAIN  43  36  76 E12       29.81F
APPLETON       LGT RAIN  41  39  93 E17       29.76F
CLINTONVILLE   LGT RAIN  41  37  87 E10G18    29.78F
OSHKOSH        CLOUDY    46  35  65 SE14      29.73F
$$

WIZ032>034-041-042-053>061-250000-
SOUTHWEST WISCONSIN

CITY           SKY/WX    TMP DP  RH WIND       PRES   REMARKS
LA CROSSE      LGT RAIN  47  45  93 W3        29.66S VSB 1
SPARTA         DRIZZLE   45  44  98 E6        29.68F
VIROQUA        CLOUDY    48  48 100 S8        29.66F
BOSCOBEL       RAIN      52  49  89 CALM      29.68S FOG
PRAIRIE DU CHI LGT RAIN  51  49  92 CALM      29.67F
PLATTEVILLE    CLOUDY    52  48  85 SE7       29.67R
$$

WIZ056-057-062-063-064-067-068-250000-
SOUTH CENTRAL WISCONSIN

CITY           SKY/WX    TMP DP  RH WIND       PRES   REMARKS
BARABOO/DELLS  LGT RAIN  49  45  85 SE10      29.69S
LONE ROCK      LGT RAIN  52  48  86 SE3       29.67F FOG
WATERTOWN      CLOUDY    53  35  50 SE13      29.71S
MADISON        LGT RAIN  51  47  86 E7        29.70F FOG
MIDDLETON      CLOUDY    52  49  89 SE7       29.70F
MONROE         DRIZZLE   50  50 100 E5        29.68S
JANESVILLE     DRIZZLE   59  45  58 SE9       29.69S
$$

WIZ051-052-058>065-066-070>072-250000-
SOUTHEAST WISCONSIN

CITY           SKY/WX    TMP DP  RH WIND       PRES   REMARKS
MILWAUKEE      CLOUDY    47  31  53 SE17      29.77F
WAUKESHA       CLOUDY    52  30  43 E16G24    29.76F
MILWAUKEE/TIMM CLOUDY    50  27  40 SE9       29.77F
RACINE         CLOUDY    47  31  53 SE15G23   29.78F
BURLINGTON     CLOUDY    55  30  38 MISG      29.72F
KENOSHA        CLOUDY    52  28  39 SE14      29.75F
FOND DU LAC    LGT RAIN  47  33  58 SE14G28   29.74F
SHEBOYGAN      LGT RAIN  48  29  47 SE13      29.79F
WEST BEND      CLOUDY    45  30  57 SE12      29.77F
JUNEAU         CLOUDY    50  31  48 E12       29.73S
$$

LSZ147-162-250000-
LAKE SUPERIOR

STATION/POSITION TIME  TEMP    WIND        PRES    WAVE
                       AIR SEA DIR/SP/G            HT/PER
                 (UTC) (F)     (DEG/KT/KT) (MB)    (FT/S)
DEVILS ISLAND    2300   33      90/ 25/ 28 1009.8F
PORT WING        2200   35      80/  5/  9 1008.1
SAXON HARBOR     2200          160/  1/ 11 1008.5F
$$

LMZ867-665-643>646-250000-
LAKE MICHIGAN

STATION/POSITION TIME  TEMP    WIND        PRES    WAVE
                       AIR SEA DIR/SP/G            HT/PER
                 (UTC) (F)     (DEG/KT/KT) (MB)    (FT/S)
NORTHPORT PIER   2200   36      90/ 10/ 25 1013.5F
SISTER BAY       2223   39     110/ 12/ 15   N/A
KEWAUNEE LAKESHO 2200   39      80/ 13/ 19 1011.6F
SHEBOYGAN LAKESH 2300   44     110/ 18/ 19 1009.1F
PORT WASHINGTON  2200   41      90/ 12/ 15 1010.2F
MILWAUKEE LAKESH 2200   44     120/ 11/ 16   N/A
KENOSHA   LAKESH 2300   44     110/ 18/ 20   N/A
$$

TC  - TEMPERATURE IN CELSIUS
VSB - VISIBILITY IN STATUTE MILES
WCI - WIND CHILL INDEX
HX  - HEAT INDEX




USA.gov is the U.S. government's official web portal to all federal, state and local government web resources and services.